Weather History for KMAI - March, 2013

Change the Weather History Date:

Sunday, March 3, 2013

  Actual Average Record
Temperature  
Mean Temperature 41 °F 58 °F  
Max Temperature 50 °F 70 °F 83 °F (2015)
Min Temperature 32 °F 46 °F 28 °F (2009)
Degree Days  
Heating Degree Days 24    
Month to date heating degree days 65  
Since 1 July heating degree days 1068  
Cooling Degree Days 0    
Month to date cooling degree days 0  
Year to date cooling degree days 59  
Moisture  
Dew Point 25 °F    
Average Humidity 54    
Maximum Humidity 75    
Minimum Humidity 32    
Precipitation  
Precipitation 0.00 in 0.15 in 4.73 in (2012)
Month to date precipitation 0.00 0.42  
Year to date precipitation 13.87 10.40  
Sea Level Pressure  
Sea Level Pressure 30.12 in    
Wind  
Wind Speed 8 mph (NW)    
Max Wind Speed 20 mph    
Max Gust Speed 25 mph    
Visibility 10 miles    
Events      
T = Trace of Precipitation, MM = Missing Value Source: NWS Daily Summary

Daily Weather History Graph

Daily Weather History Graph

Search for Another Location

Airport or City:

Trip Planner

Search our weather history database for the weather conditions in past years. The results will help you decide how hot, cold, wet, or windy it might be!

Date:

Astronomy

Mar. 03, 2013 Rise Set
Actual Time 6:04 AM CST 5:40 PM CST
Civil Twilight 5:40 AM CST 6:05 PM CST
Nautical Twilight 5:12 AM CST 6:33 PM CST
Astronomical Twilight 4:44 AM CST 7:01 PM CST
Moon 11:56 PM CST (3/3) 9:45 AM CST (3/3)
Length of Visible Light 12h 24m
Length of Day
11h 36m
Waning Gibbous, 63% of the Moon is Illuminated
Mar 3
Waning Gibbous
Mar 4
Last Quarter
Mar 11
New
Mar 19
First Quarter
Mar 27
Full

Hourly Weather History & Observations

Time (CST) Temp. Windchill Dew Point Humidity Pressure Visibility Wind Dir Wind Speed Gust Speed Precip Events Conditions
12:53 AM 39.0 °F 31.8 °F 26.1 °F 60% 30.11 in 10.0 mi NW 11.5 mph - N/A   Overcast
1:53 AM 37.9 °F 30.5 °F 26.1 °F 62% 30.10 in 10.0 mi NW 11.5 mph - N/A   Overcast
2:53 AM 37.9 °F 30.0 °F 25.0 °F 60% 30.10 in 10.0 mi NW 12.7 mph - N/A   Overcast
3:53 AM 37.9 °F 32.1 °F 26.1 °F 62% 30.10 in 10.0 mi NW 8.1 mph - N/A   Overcast
4:53 AM 37.0 °F 29.3 °F 26.1 °F 65% 30.10 in 10.0 mi NW 11.5 mph - N/A   Overcast
5:53 AM 37.0 °F 30.4 °F 26.1 °F 65% 30.11 in 10.0 mi NW 9.2 mph - N/A   Overcast
6:53 AM 37.0 °F 30.4 °F 27.0 °F 67% 30.13 in 10.0 mi NW 9.2 mph - N/A   Overcast
7:53 AM 37.9 °F 30.9 °F 27.0 °F 65% 30.15 in 10.0 mi NW 10.4 mph - N/A   Overcast
8:53 AM 39.9 °F 33.9 °F 27.0 °F 60% 30.16 in 10.0 mi NW 9.2 mph - N/A   Overcast
9:53 AM 43.0 °F 36.8 °F 24.1 °F 47% 30.15 in 10.0 mi NNW 11.5 mph - N/A   Overcast
10:53 AM 43.0 °F 38.8 °F 23.0 °F 45% 30.14 in 10.0 mi NW 6.9 mph 17.3 mph N/A   Mostly Cloudy
11:53 AM 46.0 °F 41.4 °F 23.0 °F 40% 30.12 in 10.0 mi NNW 9.2 mph 18.4 mph N/A   Partly Cloudy
12:53 PM 46.9 °F - 21.9 °F 37% 30.11 in 10.0 mi NW 13.8 mph 25.3 mph N/A   Partly Cloudy
1:53 PM 48.0 °F - 21.9 °F 36% 30.08 in 10.0 mi North 10.4 mph 16.1 mph N/A   Clear
2:53 PM 50.0 °F - 21.9 °F 33% 30.08 in 10.0 mi NW 11.5 mph 19.6 mph N/A   Clear
3:53 PM 48.9 °F - 21.9 °F 35% 30.08 in 10.0 mi WNW 12.7 mph - N/A   Clear
4:53 PM 48.0 °F - 21.0 °F 34% 30.10 in 10.0 mi NW 11.5 mph - N/A   Clear
5:53 PM 44.1 °F 40.8 °F 21.9 °F 42% 30.12 in 10.0 mi NW 5.8 mph - N/A   Clear
6:53 PM 42.1 °F - 24.1 °F 49% 30.13 in 10.0 mi Calm Calm - N/A   Clear
7:53 PM 37.9 °F - 26.1 °F 62% 30.15 in 10.0 mi Calm Calm - N/A   Clear
8:53 PM 37.0 °F - 28.0 °F 70% 30.17 in 10.0 mi Calm Calm - N/A   Clear
9:53 PM 36.0 °F - 28.0 °F 73% 30.17 in 10.0 mi Calm Calm - N/A   Clear
10:53 PM 35.1 °F - 28.0 °F 76% 30.17 in 10.0 mi Calm Calm - N/A   Clear
11:53 PM 33.1 °F - 28.0 °F 82% 30.17 in 10.0 mi Calm Calm - N/A   Clear